• In Uzbekistan
  • List of Countries
  • For 7 days
  • Water Temperature
  • Satellite Maps
  • Weather Map
  • Weather Widgets
  • user-avatar
    Login

    Hourly Weather Batken

    Today, 27 June, Thursday

    Time Temperature Precipitation Wind Pressure Humidity
    00:00 +25°C° 0 mm 1 mps 669 mmHg 33%
    01:00 +25°C° 0 mm 1 mps 669 mmHg 34%
    02:00 +24°C° 0 mm 1 mps 668 mmHg 35%
    03:00 +24°C° 0 mm 1 mps 668 mmHg 36%
    04:00 +23°C° 0 mm 1 mps 668 mmHg 36%
    05:00 +23°C° 0 mm 1 mps 668 mmHg 37%
    06:00 +24°C° 0 mm 1 mps 669 mmHg 34%
    07:00 +26°C° 0 mm 1 mps 669 mmHg 31%
    08:00 +28°C° 0 mm 1 mps 670 mmHg 27%
    09:00 +29°C° 0 mm 1 mps 670 mmHg 26%
    10:00 +29°C° 0 mm 2 mps 670 mmHg 25%
    11:00 +30°C° 0 mm 2 mps 670 mmHg 24%
    12:00 +30°C° 0.1 mm 3 mps 670 mmHg 25%
    13:00 +31°C° 0.1 mm 3 mps 669 mmHg 25%
    14:00 +32°C° 0.1 mm 4 mps 669 mmHg 26%
    15:00 +32°C° 0.1 mm 4 mps 669 mmHg 26%
    16:00 +32°C° 0.1 mm 4 mps 669 mmHg 26%
    17:00 +30°C° 0.1 mm 4 mps 669 mmHg 25%
    18:00 +29°C° 0 mm 4 mps 669 mmHg 27%
    19:00 +29°C° 0 mm 3 mps 669 mmHg 29%
    20:00 +28°C° 0 mm 3 mps 669 mmHg 30%
    21:00 +26°C° 0 mm 3 mps 668 mmHg 33%
    22:00 +25°C° 0 mm 3 mps 668 mmHg 35%
    23:00 +24°C° 0 mm 2 mps 668 mmHg 38%

    Tomorrow, 28 June, Friday

    Time Temperature Precipitation Wind Pressure Humidity
    00:00 +24°C° 0 mm 2 mps 668 mmHg 38%
    01:00 +23°C° 0 mm 2 mps 668 mmHg 38%
    02:00 +23°C° 0 mm 1 mps 667 mmHg 38%
    03:00 +22°C° 0 mm 1 mps 667 mmHg 39%
    04:00 +22°C° 0 mm 1 mps 667 mmHg 40%
    05:00 +22°C° 0 mm 1 mps 667 mmHg 41%
    06:00 +24°C° 0 mm 1 mps 667 mmHg 37%
    07:00 +25°C° 0 mm 1 mps 668 mmHg 33%
    08:00 +27°C° 0 mm 1 mps 668 mmHg 29%
    09:00 +28°C° 0 mm 1 mps 668 mmHg 27%
    10:00 +30°C° 0 mm 2 mps 668 mmHg 26%
    11:00 +31°C° 0 mm 2 mps 668 mmHg 24%
    12:00 +31°C° 0 mm 2 mps 668 mmHg 23%
    13:00 +32°C° 0 mm 2 mps 668 mmHg 22%
    14:00 +34°C° 0 mm 2 mps 668 mmHg 20%
    15:00 +34°C° 0.1 mm 2 mps 668 mmHg 21%
    16:00 +32°C° 0.1 mm 2 mps 668 mmHg 22%
    17:00 +32°C° 0.1 mm 2 mps 668 mmHg 23%
    18:00 +31°C° 0 mm 3 mps 667 mmHg 27%
    19:00 +29°C° 0 mm 3 mps 667 mmHg 30%
    20:00 +28°C° 0 mm 4 mps 667 mmHg 34%
    21:00 +28°C° 0.1 mm 3 mps 667 mmHg 35%
    22:00 +27°C° 0.1 mm 2 mps 668 mmHg 36%
    23:00 +27°C° 0.1 mm 1 mps 668 mmHg 37%

    Day after tomorrow, 29 June, Saturday

    Time Temperature Precipitation Wind Pressure Humidity
    00:00 +26°C° 0 mm 1 mps 667 mmHg 38%
    01:00 +25°C° 0 mm 1 mps 667 mmHg 39%
    02:00 +25°C° 0 mm 1 mps 667 mmHg 40%
    03:00 +24°C° 0 mm 1 mps 666 mmHg 41%
    04:00 +24°C° 0 mm 1 mps 666 mmHg 42%
    05:00 +23°C° 0 mm 1 mps 666 mmHg 43%
    06:00 +25°C° 0 mm 1 mps 666 mmHg 39%
    07:00 +26°C° 0 mm 1 mps 666 mmHg 35%
    08:00 +28°C° 0 mm 1 mps 667 mmHg 31%
    09:00 +29°C° 0 mm 2 mps 667 mmHg 30%
    10:00 +30°C° 0 mm 2 mps 667 mmHg 28%
    11:00 +31°C° 0 mm 3 mps 667 mmHg 27%
    12:00 +31°C° 0.1 mm 3 mps 667 mmHg 26%
    13:00 +32°C° 0.1 mm 2 mps 667 mmHg 25%
    14:00 +34°C° 0.1 mm 2 mps 667 mmHg 24%
    15:00 +33°C° 0.2 mm 3 mps 667 mmHg 25%
    16:00 +33°C° 0.2 mm 4 mps 667 mmHg 26%
    17:00 +33°C° 0.2 mm 5 mps 667 mmHg 27%
    18:00 +30°C° 0.2 mm 5 mps 667 mmHg 32%
    19:00 +29°C° 0.2 mm 4 mps 667 mmHg 36%
    20:00 +28°C° 0.2 mm 4 mps 667 mmHg 41%
    21:00 +27°C° 0.1 mm 3 mps 667 mmHg 41%
    22:00 +26°C° 0.1 mm 3 mps 667 mmHg 42%
    23:00 +26°C° 0.1 mm 2 mps 667 mmHg 42%

    30 June, Sunday

    Time Temperature Precipitation Wind Pressure Humidity
    00:00 +25°C° 0 mm 2 mps 666 mmHg 42%
    01:00 +25°C° 0 mm 1 mps 666 mmHg 42%
    02:00 +25°C° 0 mm 1 mps 666 mmHg 41%
    03:00 +24°C° 0 mm 1 mps 665 mmHg 42%
    04:00 +24°C° 0 mm 1 mps 665 mmHg 42%
    05:00 +23°C° 0 mm 1 mps 665 mmHg 43%
    06:00 +25°C° 0 mm 1 mps 666 mmHg 39%
    07:00 +27°C° 0 mm 1 mps 666 mmHg 34%
    08:00 +29°C° 0 mm 1 mps 667 mmHg 30%
    09:00 +30°C° 0 mm 1 mps 667 mmHg 29%
    10:00 +31°C° 0 mm 2 mps 667 mmHg 28%
    11:00 +32°C° 0 mm 2 mps 667 mmHg 27%
    12:00 +32°C° 0 mm 2 mps 667 mmHg 26%
    13:00 +34°C° 0 mm 2 mps 667 mmHg 24%
    14:00 +35°C° 0 mm 2 mps 667 mmHg 22%
    15:00 +35°C° 0 mm 2 mps 668 mmHg 22%
    16:00 +35°C° 0 mm 2 mps 668 mmHg 21%
    17:00 +36°C° 0 mm 2 mps 668 mmHg 21%
    18:00 +34°C° 0.1 mm 2 mps 668 mmHg 24%
    19:00 +32°C° 0.1 mm 2 mps 668 mmHg 27%
    20:00 +30°C° 0.1 mm 2 mps 668 mmHg 31%
    21:00 +29°C° 0.2 mm 2 mps 668 mmHg 36%
    22:00 +27°C° 0.2 mm 2 mps 668 mmHg 41%
    23:00 +26°C° 0.2 mm 2 mps 668 mmHg 46%

    1 July, Monday

    Time Temperature Precipitation Wind Pressure Humidity
    00:00 +26°C° 0.1 mm 2 mps 668 mmHg 48%
    01:00 +25°C° 0.1 mm 1 mps 668 mmHg 50%
    02:00 +24°C° 0.1 mm 1 mps 667 mmHg 53%
    03:00 +24°C° 0 mm 1 mps 667 mmHg 54%
    04:00 +23°C° 0 mm 1 mps 667 mmHg 56%
    05:00 +21°C° 0 mm 0 mps 667 mmHg 57%
    06:00 +24°C° 0 mm 1 mps 667 mmHg 52%
    07:00 +26°C° 0 mm 1 mps 668 mmHg 46%
    08:00 +27°C° 0 mm 1 mps 668 mmHg 41%
    09:00 +29°C° 0 mm 2 mps 668 mmHg 38%
    10:00 +30°C° 0 mm 3 mps 668 mmHg 35%
    11:00 +31°C° 0 mm 3 mps 669 mmHg 32%
    12:00 +33°C° 0.1 mm 3 mps 669 mmHg 30%
    13:00 +34°C° 0.1 mm 3 mps 669 mmHg 28%
    14:00 +35°C° 0.1 mm 3 mps 669 mmHg 26%
    15:00 +35°C° 0.1 mm 3 mps 669 mmHg 25%
    16:00 +35°C° 0.1 mm 4 mps 669 mmHg 24%
    17:00 +35°C° 0.1 mm 4 mps 669 mmHg 24%
    18:00 +34°C° 0 mm 3 mps 669 mmHg 29%
    19:00 +31°C° 0 mm 2 mps 669 mmHg 34%
    20:00 +29°C° 0 mm 1 mps 669 mmHg 39%
    21:00 +29°C° 0 mm 1 mps 669 mmHg 39%
    22:00 +28°C° 0 mm 1 mps 669 mmHg 39%
    23:00 +28°C° 0 mm 1 mps 669 mmHg 40%

    2 July, Tuesday

    Time Temperature Precipitation Wind Pressure Humidity
    00:00 +27°C° 0 mm 1 mps 669 mmHg 41%
    01:00 +26°C° 0 mm 1 mps 668 mmHg 41%
    02:00 +26°C° 0 mm 1 mps 668 mmHg 42%
    03:00 +25°C° 0 mm 1 mps 668 mmHg 43%
    04:00 +23°C° 0 mm 0 mps 668 mmHg 44%
    05:00 +22°C° 0 mm 0 mps 668 mmHg 46%
    06:00 +24°C° 0 mm 0 mps 669 mmHg 40%
    07:00 +28°C° 0 mm 1 mps 669 mmHg 35%
    08:00 +30°C° 0 mm 1 mps 670 mmHg 29%
    09:00 +32°C° 0 mm 1 mps 670 mmHg 27%
    10:00 +34°C° 0 mm 2 mps 670 mmHg 25%
    11:00 +35°C° 0 mm 3 mps 670 mmHg 23%
    12:00 +36°C° 0 mm 3 mps 670 mmHg 22%
    13:00 +37°C° 0 mm 3 mps 670 mmHg 20%
    14:00 +38°C° 0 mm 3 mps 669 mmHg 18%
    15:00 +38°C° 0 mm 3 mps 669 mmHg 18%
    16:00 +38°C° 0 mm 2 mps 669 mmHg 17%
    17:00 +38°C° 0 mm 2 mps 669 mmHg 17%
    18:00 +35°C° 0 mm 1 mps 669 mmHg 21%
    19:00 +34°C° 0 mm 1 mps 669 mmHg 26%
    20:00 +30°C° 0 mm 0 mps 669 mmHg 30%
    21:00 +29°C° 0 mm 0 mps 669 mmHg 30%
    22:00 +28°C° 0 mm 0 mps 669 mmHg 30%
    23:00 +30°C° 0 mm 1 mps 669 mmHg 29%
    Show more